Regional Weather Roundup
Issued by NWS Mobile, AL

Home | Current Version | Previous Version | Text Only | Print | Product List | Glossary On
Versions: 1 2 3 4 5 6 7 8 9 10 11 12 13 14 15 16 17 18 19 20 21 22 23 24 25 26 27 28 29 30 31 32 33 34 35 36 37 38 39 40 41 42 43 44 45 46 47 48 49 50
000
ASUS44 KMOB 291812
RWRMOB
REGIONAL WEATHER ROUNDUP
NATIONAL WEATHER SERVICE MOBILE AL
100 PM CDT MON MAY 29 2017

NOTE: "FAIR" INDICATES FEW OR NO CLOUDS BELOW 12,000 FEET WITH NO
      SIGNIFICANT WEATHER AND/OR OBSTRUCTIONS TO VISIBILITY.

  * THESE STATIONS ARE PART OF THE UNIVERSITY OF SOUTH ALABAMA
    MESONET AND ARE NOT UNDER NWS OR FAA QUALITY CONTROL.

ALZ061>064-291900-
COASTAL ALABAMA

CITY           SKY/WX    TMP DP  RH WIND       PRES   REMARKS
MOBILE REG APT PTSUNNY   84  70  62 NW6       30.04F
6HR MIN TEMP:  74; 6HR MAX TEMP:  84; 6HR PCP:  0.07;

BROOKLEY FIELD CLOUDY    83  76  79 SE8       30.05F
6HR MIN TEMP:  74; 6HR MAX TEMP:  83; 6HR PCP:  0.03;

USA CAMPUS*      N/A     84  72  65 CALM      30.04F
DOG RIVER*       N/A     82  72  69 W5        30.79F


CITY           SKY/WX    TMP DP  RH WIND       PRES   REMARKS
GULF SHORES    CLOUDY    83  76  80 S7        30.03F

$$

ALZ051>060-291900-
INTERIOR SOUTHWEST AND SOUTH CENTRAL ALABAMA

CITY           SKY/WX    TMP DP  RH WIND       PRES   REMARKS
GREENVILLE     CLOUDY    81  67  62 W10       30.04F
6HR MIN TEMP:  72; 6HR MAX TEMP:  82; 6HR PCP: TRACE;

EVERGREEN      CLOUDY    83  69  62 SW10      30.05F
6HR MIN TEMP:  72; 6HR MAX TEMP:  83; 6HR PCP:  0.01;

ATMORE*          N/A     81  72  74 SW3       30.05F
ANDALUSIA/OPP  CLOUDY    85  70  60 W8        30.05F
6HR MIN TEMP:  73; 6HR MAX TEMP:  85; 6HR PCP:  0.11;

ANDALUSIA*       N/A     79  73  83 W8        30.06F
FLORALA APT    CLOUDY    84  73  69 S9        30.06F
6HR MIN TEMP:  70; 6HR MAX TEMP:  83; 6HR PCP:  0.06;

FLORALA*         N/A     82  75  78 CALM      30.75F

$$

FLZ001>006-291900-
WESTERN FLORIDA PANHANDLE

CITY           SKY/WX    TMP DP  RH WIND       PRES   REMARKS
PENSACOLA      PTSUNNY   88  71  57 SW12      30.04F
6HR MIN TEMP:  73; 6HR MAX TEMP:  88; 6HR PCP: TRACE;

NAS PENSACOLA  PTSUNNY   82  75  79 SW10      30.04F
6HR MIN TEMP:  71; 6HR MAX TEMP:  85; 6HR PCP: TRACE;

MILTON         PTSUNNY   83  72  69 SW9       30.05F
6HR MIN TEMP:  68; 6HR MAX TEMP:  84; 6HR PCP: TRACE;

WHTNG S FIELD    N/A    N/A N/A N/A MISG      30.05F


CITY           SKY/WX    TMP DP  RH WIND       PRES   REMARKS
JAY*             N/A     82  70  65 W5        30.04F
DUKE FIELD     PTSUNNY   86  72  62 W13       30.03F
CRESTVIEW      PTSUNNY   86  74  67 SW8       30.05F
6HR MIN TEMP:  72; 6HR MAX TEMP:  85; 6HR PCP:  0.19;

VALPARAISO     PTSUNNY   84  75  73 SW13      30.05F
6HR MIN TEMP:  72; 6HR MAX TEMP:  84; 6HR PCP:  0.19;

DESTIN         MOSUNNY   86  81  85 VRB6      30.05S HX 102
6HR MIN TEMP:  76; 6HR MAX TEMP:  86; 6HR PCP:  0.10;


$$

MSZ076-079-291900-
INTERIOR SOUTHEAST MISSISSIPPI

CITY           SKY/WX    TMP DP  RH WIND       PRES   REMARKS
LEAKESVILLE*   NOT AVBL
AGRICOLA*        N/A     81  68  65 W3        30.03F

$$

MARINE OBSERVATIONS

STATION/POSITION TIME  TEMP    WIND        PRES    WAVE
                       AIR SEA DIR/SP/G            HT/PER
                 (UTC) (F)     (DEG/KT/KT) (MB)    (FT/S)
PASCAGOULA       1748   82     240/  3/  5 1017.1F
PETIT BOIS ISLND 1748   80     220/  3/  4 1018.0F
GRAND BAY        1645   79     200/  5     1018.0F
KATRINA CUT      1730   78     220/  5     1017.6S
CEDAR POINT      1730   79     240/  6     1017.6S
E DAUPHIN ISLAND 1700   79     220/  6/  8 1017.4F
MIDDLE BAY LIGHT 1730   79     200/  6     1017.3F
USCG MOBILE BAY  1748   79 78  140/  5/  7 1017.8F
STATE DOCKS      1748   80 78              1017.2F
MEAHER PARK      1730   79     180/  6     1017.3F
FORT MORGAN      1748   80     230/  6/  7   N/A
12 S ORANGE BCH  1650   79 79  200/ 10/ 10 1017.5F   3/ 6
PENSACOLA BAY    1748   85 80              1017.7F
64 S DAUPHIN ISL 1750   80 80  220/  4/  6 1017.4F   3/ 5
67 S FORT MORGAN 1730   78     220/  4     1017.6F

$$

SELECTED LOCATIONS ACROSS THE REGION

CITY           SKY/WX    TMP DP  RH WIND       PRES   REMARKS
NEW ORLEANS    CLOUDY    84  68  58 S8        30.02F
GULFPORT       CLOUDY    82  69  64 VRB5      30.03F
PASCAGOULA AP  PTSUNNY   86  66  51 SW8       30.03F
PASCAGOULA*    NOT AVBL
HATTIESBURG    CLOUDY    79  66  64 SE3       30.03F
LAUREL         CLOUDY    77  66  69 S6        30.05S
MERIDIAN       CLOUDY    83  67  58 MISG      30.03F
JACKSON        CLOUDY    75  66  73 NE5       30.03F
MONTGOMERY     CLOUDY    83  69  62 W14G20    30.04F
TROY           CLOUDY    81  70  69 W13G20    30.06F
ASHFORD*         N/A     79  73  83 W8        30.06F
DOTHAN         PTSUNNY   85  72  65 SW14      30.07F
PANAMA CITY    CLOUDY    84  73  69 S15       30.05F

$$




USA.gov is the U.S. government's official web portal to all federal, state and local government web resources and services.